Location: Byszew
(52.1813°N, 19.2693°E)
Time: 01:48:18
(UTC+00:00)

Envisat - Pass Details

Date: 29 January 2022
Orbit: 764 x 765 km, 98.2° (Epoch: 28 May)

Event Time Altitude Azimuth Distance (km) Brightness Sun altitude
Rises 04:04:56 0° 13° (NNE) 3,244 6.4 -21.9°
Reaches altitude 10° 04:07:15 10° 11° (NNE) 2,314 5.6 -21.5°
Maximum altitude 04:12:20 73° 289° (WNW) 806 2.9 -20.7°
Drops below altitude 10° 04:17:23 10° 205° (SSW) 2,298 5.3 -19.9°
Sets 04:19:41 0° 203° (SSW) 3,220 6.0 -19.6°
